CZ-3B R/B (43709 NORAD) Tracking and Keplerian Element Data

This shows tracking and keplerian element data for the satellite.

Feedback or suggestion? Click here.




ElementValue
Catalog43709
NameCZ-3B R/B
Epoch Orbit83
Epoch Day341.93622313
Epoch Year2018
RAAN266.311
Inclination54.9469
Eccentricity0.584357
Argument of Perigee176.605
Mean Anonmoly190.7007
Mean Motion4.36131282
Decay Rate0.00023311
L11 43709U 18093D 18341.93622313 .00023311 92670-6 68177-3 0 9992
L22 43709 54.9469 266.3110 5843570 176.6050 190.7007 4.36131282 833

Live tracking and technical data element details for CZ-3B R/B (NORAD 43709). CZ-3B R/B can be tracked NOW for your location showing map with azimuth and elevation plus other details from your city location.

Track the satellite on the map from your city or location and see movement details for azimuth, elevation, latitude, longitude, range, height, and movement on the map or in text.







IsCatalogInMostPopularTable: catalog: 43709, numindb: 14
Update: records affected: 1



GetName: 43709 CZ-3B R/B

Hit Count: updated at: Tue, 11 Dec 2018 03:26:06 GMT